Location: �perlecques
(50.8057°N, 2.1521°E)
Time: 09:39:28
(UTC+00:00)

Vanguard 1 Rocket - Pass Details

Date: 06 August 2021
Orbit: 650 x 4226 km, 34.3° (Epoch: 16 September)

Event Time Altitude Azimuth Distance (km) Brightness Sun altitude
Rises 10:29:10 0° 249° (WSW) 8,162 12.2 51.5°
Reaches altitude 10° 10:35:47 10° 244° (WSW) 6,763 11.9 52.1°
Maximum altitude 10:53:22 40° 185° (S) 3,319 11.7 53.4°
Drops below altitude 10° 11:03:22 10° 121° (ESE) 3,923 11.2 54.1°
Sets 11:06:04 0° 113° (ESE) 4,552 11.3 54.3°
